GFSGBSN_850_rhum_000.txt.gz
RH
68 61 28 20 25 25 25 28 31 32 37 38 41 43 38 40 43 48 45 40 34 28 24 21 21 26 28 32 21 18 14 14 16 19 21 18 17 19 23 22 12 10 8 11 9 7 10
64 64 44 20 27 26 27 29 35 38 40 42 42 40 36 39 43 47 41 37 30 24 22 21 25 29 31 45 19 19 15 15 16 16 18 19 13 12 17 11 13 11 9 10 11 8 7
63 62 48 24 29 26 28 34 38 41 42 44 41 43 37 38 43 43 39 34 26 23 22 26 28 31 33 18 18 17 14 13 14 13 15 16 14 15 16 12 8 9 10 11 11 12 12
65 60 55 31 27 29 32 39 43 44 45 45 47 46 37 39 40 37 34 28 24 22 26 28 32 34 23 16 16 16 12 12 12 11 12 14 14 17 13 10 13 14 17 15 11 14 15
64 58 55 32 28 32 36 43 42 45 46 50 49 47 39 38 37 32 28 23 25 27 29 34 38 38 20 15 15 13 12 11 12 13 13 14 13 12 11 17 18 19 19 16 14 16 16
63 59 50 28 28 34 40 46 43 47 47 51 48 45 37 37 32 29 26 28 29 32 36 41 48 38 13 17 12 13 12 10 14 11 11 12 12 20 23 16 20 16 17 17 17 17 44
63 64 52 32 28 34 42 47 46 47 50 50 48 39 35 35 30 29 28 32 39 45 42 19 20 21 18 18 12 13 11 10 15 14 21 19 25 23 18 17 14 16 17 18 20 25 48
66 65 49 39 31 36 45 48 47 48 49 51 45 36 32 29 27 28 30 45 56 47 41 17 17 19 19 20 15 14 11 15 17 22 20 25 24 19 25 26 25 26 29 34 32 34 47
70 68 44 38 34 40 47 47 45 48 49 51 41 31 30 27 29 29 36 41 51 49 42 22 20 19 18 18 16 16 16 18 19 21 24 26 20 22 26 30 31 34 28 28 39 42 42
76 73 45 38 36 44 49 46 45 47 49 48 38 30 33 27 34 31 31 44 50 44 38 26 17 16 18 18 18 18 18 18 23 27 27 30 28 26 28 29 31 31 28 33 45 44 51
82 79 42 40 39 50 49 46 46 46 48 49 34 30 31 31 37 41 50 30 35 40 50 21 18 16 18 20 16 21 23 18 23 26 27 30 28 30 29 26 28 32 30 32 31 38 39
93 85 43 38 42 53 50 44 46 46 47 50 33 34 36 47 49 52 29 27 31 66 47 22 19 18 20 22 22 22 22 20 23 33 32 31 26 27 26 28 26 29 38 45 51 52 60
100 92 50 41 46 57 49 44 45 45 47 50 38 36 33 48 54 34 29 24 58 71 27 25 24 20 23 31 32 30 33 37 33 37 41 32 31 28 26 29 29 38 44 64 58 69 71
99 99 56 44 52 56 51 45 44 44 45 48 48 43 41 52 39 31 31 38 46 42 35 22 26 25 28 30 33 34 33 38 34 38 47 43 45 28 25 27 31 33 43 65 57 78 61
99 98 56 48 57 55 51 46 43 43 42 44 46 47 54 32 30 30 28 68 58 49 26 28 28 30 32 30 33 37 37 37 36 34 41 43 36 27 25 26 30 34 44 40 69 67 67
98 94 55 50 57 55 53 45 42 43 40 40 45 56 37 27 28 27 59 66 58 48 31 26 31 32 36 33 36 40 39 40 37 38 34 39 35 30 25 29 31 30 37 43 66 54 64
100 82 49 57 56 54 54 44 42 42 38 40 57 43 39 30 27 27 60 62 57 41 32 24 32 36 34 34 40 44 43 43 44 41 36 36 39 37 31 36 37 38 40 55 58 69 68
100 68 49 58 53 56 52 46 40 41 42 41 51 46 40 30 34 66 52 57 45 31 28 33 34 30 35 44 51 51 49 46 48 46 35 41 53 62 34 32 36 32 36 41 57 44 85
99 59 57 53 51 54 52 46 42 40 41 39 39 62 50 31 59 82 47 47 42 30 31 32 36 38 45 56 57 57 56 46 36 42 43 42 56 70 50 37 34 33 46 55 59 72 70
79 56 54 49 52 54 52 48 44 39 39 44 37 88 73 55 30 41 37 37 41 34 34 33 41 41 50 58 63 64 59 49 39 46 48 42 57 49 57 42 43 34 44 47 45 69 63
63 56 48 48 53 54 52 52 43 38 40 45 38 68 64 88 76 50 37 42 42 38 34 33 37 39 48 56 59 64 58 48 45 50 60 48 51 50 58 60 44 34 35 54 47 46 51
58 49 47 48 50 52 56 52 44 39 42 56 46 51 51 59 50 65 64 50 46 39 39 36 39 48 43 57 47 64 56 46 38 64 67 62 69 57 62 70 66 46 41 45 50 46 58
50 49 46 46 50 53 57 52 46 41 46 57 51 45 40 72 70 74 78 55 50 44 47 44 44 55 51 55 54 55 51 56 58 63 74 69 87 56 43 74 60 50 46 49 46 47 52
50 46 44 44 48 53 58 55 49 42 44 48 45 47 44 84 75 68 58 52 51 45 48 54 46 54 61 54 52 51 57 67 72 83 65 93 86 79 73 68 44 35 41 46 47 53 63
48 44 42 41 43 50 58 57 47 41 43 44 46 49 45 89 56 51 60 70 62 62 68 67 59 51 47 43 73 62 75 62 74 90 80 68 85 94 68 73 45 30 62 64 57 49 72
48 43 39 38 41 50 57 53 42 38 43 40 43 47 51 62 75 34 64 59 80 76 76 73 64 51 46 73 75 72 68 54 62 76 79 80 81 70 89 52 41 36 43 46 42 69 65
48 42 38 38 48 57 54 48 39 36 40 40 41 44 49 57 62 45 61 61 53 66 87 70 58 57 46 88 88 76 63 60 66 85 92 98 98 76 100 74 63 45 47 42 63 57 66
48 40 38 41 51 56 55 49 43 39 38 37 39 45 50 57 62 49 45 43 52 52 81 66 68 62 76 73 78 87 92 84 76 67 87 90 91 98 96 88 53 41 49 59 54 36 36
47 41 39 39 42 54 53 58 51 40 44 41 48 53 49 45 59 55 48 44 41 39 46 63 50 60 54 86 91 97 96 94 89 76 69 70 64 75 67 68 43 41 48 39 41 36 36

GFSGBSN_850_rhum_003.txt.gz
RH
64 50 49 54 47 24 22 24 24 25 30 38 37 43 41 36 38 39 43 44 39 36 28 21 20 23 28 31 21 19 18 21 19 17 18 17 19 19 25 23 14 13 10 11 8 11 18
85 57 56 53 51 21 22 25 25 27 34 43 42 44 37 38 40 42 44 44 37 32 26 20 22 26 30 49 20 20 17 16 19 18 21 21 15 15 19 15 14 11 11 12 9 10 9
99 69 57 57 53 28 25 26 27 32 38 45 45 45 43 45 42 46 46 41 33 29 23 21 25 29 31 18 18 17 18 14 14 15 16 17 17 16 17 12 9 10 11 12 14 13 15
99 89 60 61 55 33 27 26 28 36 44 45 46 50 50 47 44 46 42 32 28 23 22 26 30 32 24 16 16 16 15 12 12 14 15 17 18 18 15 11 13 13 16 14 12 15 16
100 99 65 61 57 44 26 27 29 40 46 46 49 53 52 44 45 43 33 27 24 25 29 32 37 40 21 16 16 14 13 12 12 13 15 15 18 15 11 17 17 19 16 17 16 27 17
99 98 78 61 55 48 27 27 31 44 47 46 53 52 49 42 42 36 28 27 28 31 35 42 46 50 16 19 16 13 13 10 14 14 16 16 13 19 17 14 18 17 17 17 17 23 32
100 96 96 64 58 46 29 28 35 49 48 49 54 53 43 41 37 30 29 33 47 48 42 23 24 23 20 19 12 12 12 10 14 12 21 19 18 19 18 16 14 16 17 18 20 33 42
100 100 99 69 62 44 30 30 39 50 49 52 54 52 38 39 31 27 30 46 49 48 41 21 24 20 17 19 14 13 11 13 16 22 21 22 24 21 28 26 25 26 28 34 34 35 39
97 98 99 79 65 46 32 31 44 50 51 52 53 47 37 36 29 29 33 51 52 58 46 26 21 20 18 19 16 16 16 18 20 23 24 27 22 25 27 29 31 32 31 35 34 36 35
94 98 99 95 70 55 32 33 49 50 52 53 51 42 37 30 34 32 38 42 63 56 39 26 20 17 19 18 20 20 19 18 23 27 30 30 28 25 27 30 29 34 32 37 39 36 36
72 91 99 100 74 64 32 35 53 52 53 53 49 39 35 34 35 35 57 56 54 42 54 24 18 18 20 18 19 24 24 19 27 28 27 31 28 28 30 28 30 35 37 33 32 32 32
73 74 99 99 84 67 36 36 53 54 53 52 50 35 38 35 48 47 59 50 44 63 51 22 20 20 25 26 27 24 22 21 24 33 31 32 27 28 27 32 31 38 37 40 43 40 43
72 72 87 100 89 75 40 41 54 55 55 52 52 34 38 40 48 52 44 36 59 62 29 25 24 22 28 34 33 32 35 38 32 39 41 31 31 28 27 31 30 34 38 48 49 54 47
76 67 79 100 93 80 46 47 55 56 54 53 52 42 41 43 53 39 30 39 39 39 38 23 26 26 31 32 35 34 34 37 35 37 41 34 37 27 28 29 32 36 37 53 57 60 45
78 64 69 98 94 81 53 51 57 58 55 53 52 53 48 53 53 38 31 68 46 44 28 30 28 32 35 32 34 38 38 37 36 35 38 41 36 27 28 28 29 33 36 40 58 60 54
72 68 65 98 99 75 55 58 60 59 54 52 49 58 47 54 41 31 56 52 43 44 34 28 30 32 38 36 38 39 38 40 37 40 35 39 36 31 29 30 33 31 35 39 47 56 54
68 69 71 100 100 74 53 62 61 55 54 54 51 60 53 45 38 28 64 48 50 43 37 29 34 37 36 38 42 43 43 44 44 41 36 35 40 38 33 34 34 35 38 50 45 53 42
69 67 77 100 100 63 58 62 65 55 59 60 65 56 48 39 41 62 56 51 45 43 31 36 30 34 38 43 48 50 48 45 48 46 40 41 51 51 34 33 36 32 36 38 44 39 62
71 90 86 100 100 63 58 59 67 57 58 51 62 67 55 34 61 77 48 43 42 35 31 33 40 39 47 56 52 56 55 47 39 41 45 43 51 56 39 30 32 35 42 45 52 62 62
99 94 90 100 96 62 57 55 63 54 55 53 50 87 71 43 32 44 40 38 35 36 36 35 45 45 55 58 62 66 61 48 42 50 45 39 51 46 46 36 40 41 47 44 40 52 51
95 89 98 100 77 62 55 52 54 54 55 58 45 71 66 88 60 44 31 39 41 40 35 33 41 41 52 60 60 66 60 49 52 54 58 45 48 51 57 56 46 34 44 45 37 40 46
99 91 100 94 65 56 57 50 51 56 58 70 44 58 56 65 39 46 44 52 46 40 40 36 44 48 45 57 48 66 57 49 44 64 59 58 61 56 62 62 57 48 39 43 49 47 42
86 96 99 68 57 59 57 49 52 53 53 70 52 36 27 82 78 59 69 53 49 44 48 44 44 53 50 56 54 55 48 52 57 61 66 61 77 53 48 63 50 49 47 42 47 44 43
99 100 74 57 60 58 54 55 51 52 48 55 44 32 39 79 78 62 64 51 50 48 47 55 47 51 63 51 51 51 58 67 67 71 63 77 65 64 64 66 46 31 44 40 41 41 42
100 70 57 57 55 56 55 55 54 46 47 52 42 32 34 88 61 55 63 67 63 61 69 68 64 58 49 46 70 61 74 67 78 73 63 60 72 77 70 56 41 26 41 55 54 37 46
68 58 53 51 52 53 59 58 50 45 48 52 44 42 41 57 68 35 67 60 78 78 77 78 66 56 46 71 75 72 69 56 53 74 75 68 73 65 72 50 46 34 33 51 42 53 43
54 49 48 45 47 54 58 57 51 44 48 53 51 44 49 43 46 41 58 63 55 68 84 70 61 59 46 77 82 72 60 61 52 70 90 93 92 71 77 69 56 40 45 44 49 44 46
50 49 45 44 48 54 57 55 49 43 46 52 43 44 46 57 57 51 41 48 52 53 79 69 68 62 74 79 82 77 82 74 66 62 84 71 80 82 83 73 57 39 50 57 48 40 33
51 50 51 62 63 60 55 50 44 40 46 45 42 42 47 56 67 62 48 42 41 37 46 61 51 61 51 83 82 92 97 97 82 69 71 67 63 67 61 62 39 37 45 36 42 41 39

GFSGBSN_850_rhum_009.txt.gz
RH
93 98 98 91 90 87 65 49 42 32 26 24 25 30 36 36 40 39 37 32 34 38 37 30 23 19 19 59 33 19 15 12 15 20 22 15 14 13 11 10 10 11 10 10 8 9 13
90 88 85 83 89 92 82 55 45 31 26 27 28 34 41 40 43 44 39 34 37 36 34 28 20 20 33 39 22 28 19 14 19 21 18 16 14 12 11 10 11 10 11 7 10 12 15
16 91 93 97 85 88 91 68 49 38 25 29 28 35 44 44 46 47 41 36 38 35 31 24 20 21 48 31 23 32 22 22 22 20 14 15 14 14 14 14 12 9 9 8 13 13 15
3 21 93 96 85 81 92 83 55 44 29 29 30 39 46 47 49 48 39 36 37 32 27 21 19 29 44 27 24 25 30 28 27 22 19 20 21 19 16 12 10 9 9 16 15 10 8
4 4 28 97 77 94 97 91 61 50 33 30 31 41 48 51 51 48 38 34 32 27 22 20 29 59 32 21 16 19 21 20 21 23 23 23 22 20 16 13 11 9 12 13 14 8 5
11 13 5 35 94 98 99 96 70 54 38 32 35 44 49 52 50 46 37 33 28 24 24 28 42 69 22 15 18 16 18 16 19 24 22 20 19 18 15 12 16 13 11 10 9 8 6
9 12 15 6 79 100 100 98 80 60 44 34 36 48 52 52 51 44 37 29 48 58 31 35 28 24 18 18 18 15 14 14 18 19 15 17 16 16 13 11 11 10 8 8 8 8 8
22 18 28 18 40 95 100 100 94 66 52 36 38 51 54 52 51 44 36 62 47 64 40 16 32 29 25 23 18 12 14 12 13 13 13 16 20 15 11 10 9 9 10 11 11 12 16
99 69 64 35 42 90 97 100 100 69 60 42 40 56 57 54 50 39 30 37 68 66 48 26 26 24 18 21 13 11 13 11 12 14 13 15 14 14 13 11 10 10 10 15 15 16 15
96 96 91 86 31 89 89 95 100 76 65 46 43 59 60 56 47 56 45 27 36 48 40 21 20 19 19 18 14 15 15 14 12 12 16 18 16 14 11 11 13 14 14 14 14 18 18
92 94 89 93 57 76 87 89 100 85 73 48 46 60 59 58 93 61 70 75 68 75 45 15 15 18 17 15 15 16 18 13 14 13 14 17 17 13 12 16 16 32 16 16 16 18 16
82 90 88 84 66 77 92 86 98 96 82 54 49 64 64 62 45 58 68 81 87 58 38 18 15 16 17 14 14 16 12 14 15 14 12 17 16 14 16 18 17 18 19 17 15 16 25
84 86 90 86 75 70 80 85 98 100 87 56 52 66 63 53 63 62 58 88 54 44 17 16 15 14 16 15 16 15 14 14 13 22 19 16 15 18 16 18 18 17 19 22 23 28 26
99 99 88 87 69 72 76 80 98 100 92 62 57 71 65 66 79 75 89 61 46 22 19 13 12 14 17 14 15 17 14 14 11 14 17 18 27 18 16 16 16 18 15 23 28 26 18
96 98 97 76 76 60 74 70 96 100 98 74 68 79 74 48 50 74 71 66 37 15 14 16 14 17 18 16 16 19 18 14 12 13 19 18 20 18 18 17 15 16 24 17 24 28 30
88 98 100 83 75 63 72 78 92 100 100 72 79 83 68 43 46 78 57 47 24 17 15 14 18 16 20 18 17 19 18 16 19 19 18 16 21 18 21 20 20 21 16 25 22 31 34
87 87 98 88 78 66 67 80 90 100 98 67 93 75 42 39 47 68 56 38 20 22 21 17 16 16 16 18 16 18 18 21 20 20 17 14 18 26 23 23 16 23 20 20 22 29 35
85 87 100 91 79 75 68 79 87 100 93 81 88 60 99 54 54 53 47 28 19 23 27 20 20 15 18 17 19 17 16 16 22 20 18 16 21 37 24 21 20 20 20 20 30 26 30
86 86 100 97 79 80 82 82 91 100 98 89 76 58 99 81 62 69 33 22 21 24 23 23 19 16 15 18 21 18 17 38 35 26 20 24 24 36 29 25 21 19 18 18 17 31 25
82 76 98 94 83 77 89 90 91 99 92 88 55 58 91 97 47 37 33 25 27 27 21 20 17 19 24 24 22 26 26 35 37 29 35 29 22 26 34 24 20 26 18 18 20 30 26
94 99 94 80 77 77 91 99 91 100 85 89 53 41 45 74 50 35 28 24 22 27 25 25 26 22 22 26 28 30 30 37 38 42 31 30 33 25 24 24 20 18 18 18 18 18 24
98 97 88 75 79 90 98 99 93 100 74 98 50 36 39 45 40 34 34 23 22 22 25 28 24 20 20 25 27 26 30 33 34 37 35 33 37 37 44 27 26 25 19 15 16 17 14
80 80 80 78 76 86 98 99 96 100 79 93 63 41 37 48 42 34 31 22 20 22 36 24 20 25 25 32 37 37 34 30 28 37 40 40 51 46 36 38 36 58 37 22 16 15 16
68 71 72 78 77 82 98 94 99 100 80 71 62 46 44 58 41 33 24 21 20 22 31 32 27 26 48 43 39 37 35 33 32 38 36 58 47 48 46 64 79 18 18 16 19 16 14
57 72 76 81 80 85 78 98 100 100 80 70 63 52 45 98 35 27 23 19 20 30 35 38 50 46 44 38 43 51 56 66 47 32 32 33 44 57 82 37 23 16 15 19 21 18 16
51 68 76 75 87 87 94 98 100 88 70 70 80 53 39 50 40 24 23 20 38 41 54 62 58 52 52 47 56 48 48 36 48 48 36 36 47 42 50 80 84 30 23 30 25 22 20
73 79 80 87 97 83 97 99 97 79 67 76 78 44 33 28 26 26 26 26 23 33 42 58 62 58 54 67 94 53 45 34 41 51 87 65 71 74 56 72 42 21 24 29 30 33 26
83 85 96 99 88 98 100 95 78 74 72 85 79 40 32 28 42 35 25 28 27 29 58 53 54 58 56 74 81 52 74 48 42 34 50 50 62 80 64 90 77 21 29 38 37 30 28
86 98 86 90 100 88 70 71 73 69 67 68 72 38 38 34 67 62 54 40 36 35 36 54 32 46 46 47 68 72 90 93 56 58 38 48 39 44 37 36 28 26 24 26 33 34 33

GFSGBSN_850_rhum_012.txt.gz
RH
57 85 85 94 100 98 91 90 80 56 45 29 27 25 26 27 30 35 35 35 34 32 35 33 26 17 15 61 37 25 18 18 10 16 27 15 12 11 13 11 9 10 10 10 11 14 16
3 18 79 84 92 91 86 89 90 69 51 43 27 28 27 30 34 38 38 37 34 33 35 32 23 17 24 40 21 27 18 16 16 19 21 14 13 12 11 9 9 10 10 8 9 10 21
3 3 7 84 90 87 85 83 92 86 58 50 33 31 29 32 39 39 40 37 35 32 34 28 21 18 53 34 23 31 24 20 23 18 17 14 14 13 12 14 11 11 12 9 12 12 16
3 3 3 6 80 99 99 88 92 96 66 56 38 31 31 38 43 40 40 36 34 31 29 23 19 22 55 26 23 24 27 26 25 21 20 17 20 18 16 16 12 11 10 14 16 14 12
4 3 3 3 7 80 97 86 82 98 77 59 48 37 34 44 46 44 42 35 30 27 23 21 27 44 39 25 19 18 19 21 19 22 20 19 20 20 19 20 14 13 15 24 19 14 9
8 4 3 3 2 14 91 95 82 98 91 66 55 40 38 48 48 46 43 31 25 22 24 26 30 58 23 19 15 15 16 18 18 21 22 21 19 20 19 16 19 18 15 17 15 11 6
6 8 7 4 3 3 18 91 81 100 99 69 63 44 43 51 51 49 42 28 58 68 72 33 28 26 15 14 17 16 13 14 17 20 21 18 20 22 16 17 16 14 13 12 10 7 7
21 17 23 11 4 3 3 46 96 99 100 74 65 47 44 56 55 53 43 68 52 65 55 34 20 28 23 22 18 14 12 13 16 18 14 17 22 16 16 14 15 13 13 10 8 8 9
69 33 22 42 25 9 3 16 95 98 99 84 71 47 43 57 57 50 39 28 56 59 50 29 17 19 20 18 16 12 12 12 13 14 15 30 26 13 14 16 16 12 13 15 12 9 9
86 97 75 52 66 34 14 7 82 99 98 97 77 56 46 60 55 47 37 24 34 51 50 25 19 20 19 17 14 11 12 11 12 16 15 38 24 16 15 13 11 23 20 14 18 27 18
91 97 97 86 94 85 36 14 67 93 96 100 77 61 47 66 87 67 76 55 63 83 57 18 17 16 16 14 12 12 13 13 14 14 20 20 16 16 15 16 15 23 21 18 13 17 22
88 91 93 90 92 95 86 31 76 85 96 100 79 61 53 70 60 51 74 74 88 73 55 18 15 16 14 14 12 12 13 13 12 14 16 24 17 16 19 14 14 17 18 19 13 16 47
88 96 95 94 88 92 89 51 68 91 99 100 83 68 52 70 73 63 60 98 73 52 17 18 17 14 15 15 13 13 15 13 15 20 21 19 16 14 14 13 14 14 18 26 38 47 40
89 83 89 89 86 85 90 66 59 88 96 100 89 81 56 72 88 88 85 95 58 27 21 10 12 14 17 13 14 13 13 14 12 13 17 21 23 15 12 12 25 18 14 33 78 79 43
84 95 94 95 91 80 88 74 64 88 90 100 99 97 73 61 71 99 98 93 48 22 16 14 12 16 16 13 13 15 14 13 11 11 20 44 33 18 14 12 14 12 18 14 23 52 39
97 80 98 98 96 86 83 77 68 84 87 100 99 99 59 57 71 98 94 70 36 20 13 13 15 14 17 16 15 16 17 12 11 11 16 61 68 33 17 17 16 19 14 26 26 39 38
88 92 99 99 98 98 85 78 71 81 94 99 99 82 53 61 68 90 85 54 38 20 14 16 14 14 14 17 14 16 16 13 14 15 14 17 40 23 21 21 15 20 20 18 17 34 56
88 96 99 98 96 100 89 74 69 87 94 100 84 67 74 67 74 46 65 41 28 21 17 18 15 13 14 16 16 15 25 20 15 14 19 14 19 46 24 16 14 17 22 18 55 37 50
80 99 98 96 91 100 92 76 72 87 95 99 75 71 91 65 55 66 48 39 27 24 20 23 18 17 13 17 19 16 14 31 28 19 21 18 24 44 30 24 20 21 15 18 19 41 47
88 90 89 85 98 98 93 84 79 83 96 100 64 83 99 94 44 44 50 38 32 24 18 19 18 16 15 17 16 19 18 32 32 26 30 29 24 25 44 26 22 28 19 14 19 60 46
89 82 77 76 94 98 94 83 82 81 96 100 73 58 68 91 67 47 43 35 30 24 21 19 19 16 22 24 22 23 20 36 34 38 30 28 33 25 20 18 22 23 19 18 17 21 32
77 84 83 89 83 99 93 88 86 83 93 100 75 50 55 56 51 54 50 40 28 21 24 25 24 19 20 25 22 25 22 35 34 37 31 31 43 41 44 27 24 27 22 19 16 15 16
71 86 97 90 98 100 94 97 92 94 98 99 77 60 45 56 53 54 52 35 27 22 21 20 20 21 22 27 29 35 32 28 26 38 41 42 64 62 54 38 43 54 42 26 23 16 16
72 79 99 99 90 97 84 81 96 97 96 86 72 66 59 63 48 48 42 29 24 21 29 24 22 25 40 35 35 34 32 32 34 37 32 66 60 66 72 68 67 23 16 16 19 17 14
79 93 99 99 98 89 85 86 95 100 98 96 68 76 71 87 48 38 40 31 21 18 28 26 44 42 38 38 51 56 69 62 40 28 34 38 60 74 96 56 30 22 15 17 18 20 18
75 87 86 86 86 80 84 95 97 100 95 96 89 81 91 68 55 32 30 24 32 43 50 57 46 42 39 56 72 50 60 40 48 45 29 35 57 72 66 80 78 35 23 24 21 34 20
80 76 70 74 78 82 91 94 99 98 94 100 93 95 98 68 39 29 30 30 23 45 53 51 58 55 53 88 95 69 61 30 54 63 87 75 78 86 72 87 65 22 22 23 38 48 29
71 58 64 73 82 87 84 88 89 96 100 100 81 83 98 57 32 28 24 22 25 37 67 53 56 53 66 80 87 69 81 57 48 34 59 65 80 92 82 98 88 21 25 43 43 30 28
51 50 62 77 77 83 78 86 84 92 100 100 97 89 71 82 60 43 39 35 28 25 42 56 40 49 54 56 74 81 93 90 69 69 30 53 48 62 55 62 31 21 24 24 27 30 32

GFSGBSN_850_rhum_015.txt.gz
RH
3 8 40 81 88 85 88 91 96 92 90 66 43 26 25 26 28 29 32 34 34 32 28 29 28 20 15 38 26 28 17 16 10 14 18 22 23 20 16 14 13 13 12 11 14 27 28
2 2 2 8 58 86 88 94 83 94 95 84 53 36 26 27 30 32 36 36 36 32 29 28 26 20 21 60 29 28 20 16 14 15 16 22 18 14 13 14 16 10 10 9 10 20 24
2 2 2 2 3 36 83 82 88 83 99 94 64 43 29 27 30 34 40 39 37 31 28 26 24 21 23 14 27 31 29 18 17 14 18 18 16 19 18 21 17 13 12 10 15 24 25
2 3 2 2 2 2 37 74 82 85 100 99 78 53 35 29 30 39 43 41 34 28 25 24 22 26 21 22 21 23 24 27 24 22 21 18 20 19 18 18 19 14 14 17 17 18 23
4 3 2 2 2 2 2 20 85 94 89 98 95 62 45 31 32 42 45 40 30 24 22 20 37 77 35 28 22 16 22 26 26 24 22 22 20 20 21 27 31 18 25 26 19 14 18
9 4 3 2 2 2 2 3 32 85 85 85 99 71 53 34 36 46 47 37 26 23 23 22 34 64 20 23 15 17 17 20 18 21 22 22 19 27 28 31 34 22 28 25 24 16 16
20 8 5 4 3 3 2 2 3 65 87 83 99 83 56 35 37 51 50 37 64 68 56 20 25 21 22 20 17 16 15 15 18 22 28 22 28 33 25 22 19 18 16 23 20 16 13
51 42 12 7 5 3 3 3 2 7 84 84 96 91 59 35 40 54 54 40 60 63 65 47 48 32 28 25 20 17 15 15 19 29 22 24 29 21 17 19 21 22 24 22 14 9 9
98 98 64 29 15 6 4 3 2 2 52 84 94 96 65 39 46 54 49 30 34 55 67 46 35 25 22 23 21 17 14 13 18 24 19 28 22 23 19 21 22 21 25 21 18 12 14
100 99 92 65 30 24 14 5 4 3 34 82 100 99 69 45 53 78 47 47 25 34 85 41 36 16 16 19 21 15 14 13 15 19 28 28 21 24 24 23 19 28 21 25 19 24 28
95 98 98 98 67 51 53 33 10 4 34 78 99 100 75 46 69 79 77 80 71 74 91 27 21 17 18 20 15 15 14 13 16 21 20 26 28 30 29 22 18 22 20 22 23 25 36
93 84 92 93 99 96 98 97 56 11 44 77 100 100 88 52 60 57 74 81 78 80 90 30 20 22 22 18 16 14 12 13 13 17 17 23 18 23 24 17 18 18 20 22 27 32 57
100 93 87 94 92 98 98 96 98 29 65 83 100 100 92 53 60 82 58 79 96 97 28 24 23 21 23 21 19 17 18 20 23 26 32 23 20 26 24 21 20 23 31 48 46 69 65
88 79 99 85 91 100 98 93 99 73 58 87 100 100 94 58 70 86 85 97 98 46 39 17 21 22 24 20 20 19 22 25 20 20 30 35 43 26 18 17 26 24 29 59 54 85 63
78 97 99 91 78 90 97 97 92 89 66 99 98 100 100 59 68 97 96 98 74 48 24 25 18 24 23 19 17 21 22 22 16 19 29 41 37 34 27 24 22 21 32 30 67 69 83
93 88 98 99 77 81 88 93 86 88 74 100 100 100 98 61 60 98 97 80 63 35 28 21 29 21 27 23 21 22 24 18 17 15 34 56 52 46 35 31 20 21 21 38 54 69 55
81 94 99 96 81 79 83 90 85 91 76 100 100 99 93 77 67 99 89 72 56 40 32 28 26 22 21 24 25 23 23 18 17 26 40 53 53 56 43 35 27 27 27 23 31 56 61
89 88 88 92 80 72 92 98 90 90 75 99 100 93 66 62 96 82 87 65 47 39 35 35 20 21 22 23 24 25 27 36 25 20 34 47 57 76 50 25 20 20 24 35 63 36 72
78 80 80 81 75 64 97 98 99 84 78 99 94 81 86 53 75 89 56 55 53 46 42 30 27 23 22 27 42 23 35 31 26 28 27 32 34 61 42 35 31 23 21 20 40 62 51
78 72 74 73 70 72 99 98 100 84 79 100 92 86 98 97 53 58 57 54 60 44 43 32 27 28 27 28 31 30 47 36 31 36 28 30 35 43 57 41 32 32 27 23 31 67 54
84 78 70 63 58 99 99 98 100 94 80 100 94 69 73 95 91 71 50 48 54 55 37 29 30 30 30 24 24 27 48 46 38 36 31 39 41 30 34 36 29 26 29 29 22 35 45
83 78 60 59 99 99 99 96 100 96 86 100 94 58 67 72 71 79 55 55 50 43 38 34 36 29 27 28 34 30 40 46 46 43 37 38 61 43 42 39 42 38 35 32 31 25 22
82 81 83 76 87 86 85 83 100 93 98 98 97 58 59 74 75 74 54 54 44 39 33 22 32 33 33 37 33 36 34 45 43 52 50 52 68 69 58 49 45 53 37 33 32 29 26
91 85 82 79 75 76 79 80 98 98 98 98 92 76 68 83 71 58 47 48 44 42 45 26 24 38 39 33 33 34 38 62 62 73 49 65 66 77 76 67 51 39 24 20 27 26 27
92 79 73 79 76 73 80 99 99 97 99 98 87 86 77 99 63 51 51 48 44 37 37 44 43 33 32 36 75 62 78 44 56 48 62 67 78 84 72 79 49 33 25 27 24 32 30
73 70 68 88 90 89 98 98 98 96 98 97 93 95 97 96 71 44 47 44 62 53 70 60 50 40 36 90 77 62 79 53 62 44 54 49 69 72 82 80 64 51 28 23 23 52 36
75 73 83 87 94 98 100 99 96 90 99 97 98 100 100 93 58 44 46 51 44 61 85 80 66 54 51 99 97 76 73 48 74 73 73 86 81 80 94 88 74 44 26 23 43 54 32
70 97 99 99 100 98 100 93 86 86 96 100 96 99 100 100 59 54 36 41 40 52 83 70 84 68 89 86 87 86 95 70 69 64 71 74 92 97 98 99 83 28 27 36 55 34 32
66 84 99 99 99 99 97 88 85 95 92 98 100 86 100 100 83 66 41 33 33 37 46 53 47 60 62 86 96 98 99 96 74 75 48 74 73 82 73 81 50 24 28 30 29 30 33